Location: New Frontier Mobile Home Park
(32.8448°N, 116.9675°W)
Time: 22:12:01
(UTC+00:00)

Cosmos 2056 Rocket - Pass Details

Date: 14 July 2020
Orbit: 741 x 801 km, 74.0° (Epoch: 05 August)

Event Time Altitude Azimuth Distance (km) Brightness Sun altitude
Rises 05:59:35 0° 339° (NNW) 3,313 8.0 -29.1°
Reaches altitude 10° 06:02:00 10° 337° (NNW) 2,380 7.0 -29.4°
Enters shadow 06:06:48 60° 289° (WNW) 911 3.9 -29.9°
